Погода в Панаме

Панама     9°01′13″N   79°30′58″W
темп.,
°C
ветер,
м/с
пор.,
м/с
влажн.,
%
обл.,
%
осадки,
мм/ч
давл.,
гПа
погр.,
м
12 мая, ср
ср1201:00+25сз229313 0.2 100966
04:00+24сз2294100 0.3 100886
07:00+25ссз2393100 1.5 1010109
10:00+28зсз3479100 0.2 1011559
13:00+29зсз3475100 0.4 1009708
16:00+28зсз4680100 0.4 1008539
19:00+26сз368999 0.4 1009265
22:00+25сз3591100 0.0 1011146
13 мая, чт
чт1301:00+25сз2493100 0.0 1009134
04:00+24ссз119482 1.1 100958
07:00+25ссз229396 3.1 101098
10:00+29з217794 1.4 1011648
13:00+29зсз3476100 4.1 1009773
16:00+28сз5679100 3.4 1008650
19:00+25сз3492100 4.9 1009139
22:00+25зсз249444 0.0 1011127
14 мая, пт
пт1401:00+24сз349689 0.0 1009141
04:00+24сз349688 0.0 1009142
07:00+25сз2493100 0.0 1010156
10:00+28с1277100 0.5 1011528
13:00+26зюз1289100 5.7 101077
16:00+27сз3586100 2.9 1008397
19:00+25сз3593100 3.9 1010173
22:00+25сз2594100 0.5 1011175
15 мая, сб
сб1501:00+24сз239595 0.5 1010113
04:00+24сз239584 0.0 1009113
07:00+25ссз2392100 0.2 1010127
10:00+27ссз1282100 4.1 1012146
13:00+28зюз0175100 9.1 1010546
16:00+27з2383100 2.1 1008252
19:00+25зсз3592100 2.8 1010158
22:00+24зсз2494100 1.6 1012120
16 мая, вс
вс1601:00+24зсз369593 1.9 1011194
04:00+23сз369597 0.1 1010236
07:00+23ссз2496100 3.9 1012142
10:00+24ссз1294100 3.0 1013112
13:00+25с1288100 3.8 1012239
16:00+25сз138697 0.6 1010346
19:00+24ссз2387100 0.6 1012142
22:00+23сз238797 0.0 101391